DW5582 Weather Reports


Display with metric or nautical units.
time (UTC)temp
F
wind
direction
speed
MPH
gust
MPH
rain 1hr
in
rain 24hr
in
rain mn
in
humidity
%
barometer
mb
20260507223024 50 190 0.0 0.0 0.00 0.00 0.00 73 1015.6
20260507221506 50 190 0.0 0.0 0.00 0.00 0.00 74 1015.7
20260507220015 50 190 0.0 0.0 0.00 0.00 0.00 75 1015.8
20260507214511 50 190 0.0 0.0 0.00 0.00 0.00 76 1015.8
20260507213029 51 190 0.0 0.0 0.00 0.00 0.00 76 1015.8
20260507211524 51 190 0.0 0.0 0.00 0.00 0.00 76 1015.7
20260507210022 52 190 0.0 2.0 0.00 0.00 0.00 76 1015.5
20260507204512 52 190 0.0 1.0 0.00 0.00 0.00 76 1015.5
20260507203020 52 190 0.0 0.0 0.00 0.00 0.00 75 1015.3
20260507201520 52 190 0.0 0.0 0.00 0.00 0.00 75 1015.3
20260507200035 53 190 0.0 0.0 0.00 0.00 0.00 74 1015.2
20260507194509 53 190 0.0 0.0 0.00 0.00 0.00 74 1015.0
20260507193020 54 190 0.0 0.0 0.00 0.00 0.00 74 1014.9
20260507191525 55 190 0.0 0.0 0.00 0.00 0.00 74 1014.9
20260507190030 55 190 0.0 0.0 0.00 0.00 0.00 74 1014.9
20260507184523 56 190 0.0 0.0 0.00 0.00 0.00 74 1014.8
20260507183016 56 190 0.0 0.0 0.00 0.00 0.00 75 1014.7
20260507181516 56 190 0.0 0.0 0.00 0.00 0.00 75 1014.7
20260507180017 56 190 0.0 0.0 0.00 0.00 0.00 75 1014.6
20260507174524 56 190 0.0 0.0 0.00 0.00 0.00 75 1014.5
20260507173028 56 190 0.0 1.0 0.00 0.00 0.00 75 1014.5
20260507171511 56 190 0.0 2.0 0.00 0.00 0.00 75 1014.5
20260507170016 56 190 0.0 2.0 0.00 0.00 0.00 75 1014.6
20260507164522 57 190 0.0 0.0 0.00 0.00 0.00 73 1014.6
20260507163023 57 190 0.0 2.0 0.00 0.00 0.00 70 1014.7
20260507161512 57 190 0.0 0.0 0.00 0.00 0.00 69 1014.7
20260507160026 58 190 0.0 0.0 0.00 0.00 0.00 69 1014.8
20260507154517 58 190 2.0 5.0 0.00 0.00 0.00 71 1014.8
20260507153024 57 190 0.0 5.0 0.00 0.00 0.00 70 1014.7
20260507151508 57 189 0.0 2.0 0.00 0.00 0.00 70 1014.8
20260507150012 57 189 0.0 5.0 0.00 0.00 0.00 70 1014.9
20260507144525 57 180 0.0 3.0 0.00 0.00 0.00 70 1014.9
20260507143022 57 182 0.0 4.0 0.00 0.00 0.00 69 1014.9
20260507141529 58 182 1.0 6.0 0.00 0.00 0.00 67 1015.0
20260507140008 58 182 0.0 8.0 0.00 0.00 0.00 66 1015.1
20260507134513 60 143 0.0 4.0 0.00 0.00 0.00 65 1015.0
20260507133019 60 206 0.0 8.0 0.00 0.00 0.00 64 1015.0
20260507131528 59 232 0.0 6.0 0.00 0.00 0.00 66 1015.1
20260507130032 58 195 0.0 1.0 0.00 0.00 0.00 67 1015.2
20260507124516 58 195 0.0 3.0 0.00 0.00 0.00 64 1015.3
20260507123017 59 195 1.0 9.0 0.00 0.00 0.00 62 1015.4
20260507121520 60 251 1.0 8.0 0.00 0.00 0.00 61 1015.3
20260507120026 61 246 2.0 8.0 0.00 0.00 0.00 60 1015.3
20260507114528 60 242 1.0 7.0 0.00 0.00 0.00 62 1015.4
20260507113011 60 214 2.0 10.0 0.00 0.00 0.00 61 1015.3
20260507111516 59 187 0.0 4.0 0.00 0.00 0.00 63 1015.4
20260507110025 60 274 3.0 10.0 0.00 0.00 0.00 63 1015.5
20260507104524 60 215 5.0 14.0 0.00 0.00 0.00 60 1015.5
20260507103027 59 158 3.0 10.0 0.00 0.00 0.00 61 1015.6
20260507101518 59 157 2.0 9.0 0.00 0.00 0.00 68 1015.6
20260507100018 58 196 4.0 8.0 0.00 0.00 0.00 71 1015.6
20260507094525 57 169 3.0 9.0 0.00 0.00 0.00 73 1015.7
20260507093034 56 125 1.0 8.0 0.00 0.00 0.00 75 1015.7
20260507091527 55 89 2.0 8.0 0.00 0.00 0.00 78 1015.7
20260507090016 54 123 1.0 4.0 0.00 0.00 0.00 79 1015.8
20260507084521 53 117 1.0 8.0 0.00 0.00 0.00 80 1015.8
20260507083028 52 102 1.0 7.0 0.00 0.00 0.00 81 1015.8
20260507081535 51 74 2.0 7.0 0.00 0.00 0.00 83 1015.9
20260507080027 50 92 1.0 7.0 0.00 0.00 0.00 84 1015.8
20260507074518 49 107 1.0 7.0 0.00 0.00 0.00 85 1015.8
20260507073024 48 109 0.0 4.0 0.00 0.00 0.00 86 1015.8
20260507071528 47 109 0.0 6.0 0.00 0.00 0.00 86 1015.7
20260507070012 46 103 0.0 7.0 0.00 0.00 0.00 87 1015.6
20260507064517 46 248 0.0 4.0 0.00 0.00 0.00 87 1015.7
20260507063018 45 172 0.0 8.0 0.00 0.00 0.00 87 1015.5
20260507061506 45 127 1.0 8.0 0.00 0.00 0.00 86 1015.5
20260507060011 45 103 0.0 3.0 0.00 0.00 0.00 86 1015.5
20260507054515 45 88 0.0 4.0 0.00 0.00 0.00 86 1015.5
20260507053020 45 87 0.0 3.0 0.00 0.00 0.00 86 1015.3
20260507051522 45 88 0.0 3.0 0.00 0.00 0.00 86 1015.3
20260507050008 45 88 0.0 0.0 0.00 0.00 0.00 85 1015.3
20260507044512 45 88 0.0 2.0 0.00 0.00 0.00 85 1015.2
20260507043018 45 88 0.0 0.0 0.00 0.00 0.00 85 1015.1
20260507041536 45 88 0.0 3.0 0.00 0.00 0.00 84 1015.2
20260507040023 45 88 0.0 4.0 0.00 0.00 0.00 84 1015.2
20260507034512 45 88 0.0 6.0 0.00 0.00 0.00 84 1015.2
20260507033014 45 87 0.0 3.0 0.00 0.00 0.00 84 1015.1
20260507031516 45 88 0.0 2.0 0.00 0.00 0.00 83 1015.2
20260507030020 45 88 0.0 3.0 0.00 0.00 0.00 83 1015.2
20260507024524 45 87 0.0 2.0 0.00 0.00 0.00 83 1015.1
20260507023009 45 88 0.0 2.0 0.00 0.00 0.00 82 1015.2
20260507021514 45 87 0.0 3.0 0.00 0.00 0.00 82 1015.2
20260507020018 46 87 1.0 4.0 0.00 0.00 0.00 82 1015.2
20260507014537 46 88 0.0 0.0 0.00 0.00 0.00 81 1015.2
20260507013038 46 87 0.0 0.0 0.00 0.00 0.00 81 1015.2
20260507011518 46 87 0.0 0.0 0.00 0.00 0.00 81 1015.2
20260507010013 46 88 0.0 4.0 0.00 0.00 0.00 81 1015.1
20260507004521 45 88 0.0 0.0 0.00 0.00 0.00 80 1015.2
20260507003024 45 87 0.0 0.0 0.00 0.00 0.00 80 1015.3
20260507001525 45 87 0.0 0.0 0.00 0.00 0.00 79 1015.3
20260507000022 45 87 0.0 0.0 0.00 0.00 0.00 79 1015.3
20260506234517 45 87 0.0 0.0 0.00 0.00 0.00 78 1015.3
20260506233023 44 87 0.0 0.0 0.00 0.00 0.00 77 1015.3
20260506231527 45 88 0.0 0.0 0.00 0.00 0.00 76 1015.3
20260506230030 45 88 0.0 0.0 0.00 0.00 0.00 76 1015.3
20260506224516 45 87 0.0 0.0 0.00 0.00 0.00 75 1015.4